Погода в Ильинском

Россия / Владимирская область     56°23′36″N   39°21′33″E
темп.,
°C
ветер,
м/с
пор.,
м/с
влажн.,
%
обл.,
%
осадки,
мм/ч
давл.,
гПа
погр.,
м
5 августа, чт
чт500:00+14зсз2266100 0.0 101727
03:00+15зсз116250 0.0 101711
06:00+13св007535 0.0 101811
09:00+18ю225980 0.0 1017403
12:00+22ююв2246100 0.0 10171484
15:00+24ююв2340100 0.0 10162298
18:00+21юв3756100 0.0 1015353
21:00+14всв2394100 1.0 101583
6 августа, пт
пт600:00+14вюв31194100 0.3 1014286
03:00+14вюв399370 0.6 1013252
06:00+13юв2493100 0.2 1013107
09:00+17ююв3581100 0.3 1013337
12:00+19ю4679100 0.4 1012470
15:00+20ю2584100 2.8 1012385
18:00+17ююв1299100 7.4 1012103
21:00+17юв2699100 8.2 1012206
7 августа, сб
сб700:00+16в379791 0.7 1012184
03:00+15в61295100 0.7 1011334
06:00+15вюв4998100 1.3 1011296
09:00+19вюв568689 2.6 1011411
12:00+24ююв696870 0.6 1010854
15:00+22ююв377574 0.7 1010333
18:00+24ююв6116375 0.1 1010590
21:00+19юв31078100 0.3 1010200
8 августа, вс
вс800:00+17юв388155 0.1 1010153
03:00+16ю488875 0.1 1011124
06:00+17юз2595100 0.2 1011144
09:00+20зюз348595 0.3 1013547
12:00+20зюз2376100 0.0 1014368
15:00+23юз3454100 0.0 10141091
18:00+22юз2462100 0.0 1015181
21:00+17зсз358627 0.0 101791
9 августа, пн
пн900:00+16з22860 0.0 101717
03:00+14зюз22900 0.0 101818
06:00+15зюз23885 0.0 101877
09:00+20з346835 0.0 1019506
12:00+24з235338 0.0 10181289
15:00+26з23465 0.0 10181854
18:00+25зсз12544 0.0 1017190
21:00+19с01625 0.0 101811